Location: Antioch Baptist Church
(32.6696°N, 85.7327°W)
Time: 19:13:52
(UTC+00:00)

GPS 2-04 Rocket1 - Pass Details

Date: 14 July 2020
Orbit: 418 x 549 km, 35.6° (Epoch: 13 August)

Event Time Altitude Azimuth Distance (km) Brightness Sun altitude
Rises 01:43:13 0° 206° (SSW) 2,358 6.0 -10.1°
Reaches altitude 10° 01:46:14 10° 177° (S) 1,485 4.7 -10.6°
Enters shadow 01:47:22 13° 157° (SSE) 1,330 4.3 -10.8°
